FW8705 Weather Reports


Display with metric or nautical units.
time (UTC)temp
F
wind
direction
speed
MPH
gust
MPH
rain 1hr
in
rain 24hr
in
rain mn
in
humidity
%
barometer
mb
20220518140109 66 229 2.0 8.0 0.00 0.00 0.00 30 1025.6
20220518135553 66 53 3.0 8.0 0.00 0.00 0.00 31 1025.5
20220518135102 66 216 4.0 8.0 0.00 0.00 0.00 29 1025.6
20220518134600 66 291 2.0 8.0 0.00 0.00 0.00 30 1025.6
20220518134051 65 61 2.0 10.0 0.00 0.00 0.00 30 1025.6
20220518133551 66 317 4.0 10.0 0.00 0.00 0.00 29 1025.7
20220518133115 66 233 1.0 5.0 0.00 0.00 0.00 30 1025.8
20220518132554 65 203 2.0 11.0 0.00 0.00 0.00 30 1025.7
20220518132056 64 200 7.0 11.0 0.00 0.00 0.00 30 1025.7
20220518131557 65 221 2.0 7.0 0.00 0.00 0.00 25 1025.7
20220518131058 66 140 2.0 6.0 0.00 0.00 0.00 30 1025.8
20220518130554 65 152 1.0 3.0 0.00 0.00 0.00 29 1025.9
20220518130107 64 0 0.0 7.0 0.00 0.00 0.00 30 1025.8
20220518125601 64 298 2.0 7.0 0.00 0.00 0.00 31 1026.0
20220518125055 65 240 2.0 7.0 0.00 0.00 0.00 30 1025.9
20220518124554 65 293 2.0 7.0 0.00 0.00 0.00 31 1025.9
20220518124055 64 0 1.0 10.0 0.00 0.00 0.00 32 1026.0
20220518123552 64 219 4.0 10.0 0.00 0.00 0.00 32 1026.0
20220518123059 64 136 0.0 9.0 0.00 0.00 0.00 32 1025.9
20220518122552 63 209 3.0 10.0 0.00 0.00 0.00 31 1025.9
20220518122052 63 115 3.0 10.0 0.00 0.00 0.00 31 1026.0
20220518121559 62 134 6.0 10.0 0.00 0.00 0.00 31 1026.0
20220518121052 62 65 4.0 9.0 0.00 0.00 0.00 32 1026.1
20220518120552 62 152 4.0 9.0 0.00 0.00 0.00 31 1026.1
20220518120059 63 103 2.0 12.0 0.00 0.00 0.00 31 1026.1
20220518115554 63 227 3.0 12.0 0.00 0.00 0.00 32 1026.2
20220518115054 63 296 3.0 10.0 0.00 0.00 0.00 33 1026.2
20220518114559 63 269 3.0 13.0 0.00 0.00 0.00 32 1026.2
20220518114055 63 288 4.0 13.0 0.00 0.00 0.00 32 1026.2
20220518113554 62 248 1.0 8.0 0.00 0.00 0.00 35 1026.2
20220518113105 62 184 4.0 9.0 0.00 0.00 0.00 34 1026.3
20220518112602 62 294 3.0 9.0 0.00 0.00 0.00 33 1026.5
20220518112054 62 261 1.0 9.0 0.00 0.00 0.00 33 1026.5
20220518111612 61 306 3.0 9.0 0.00 0.00 0.00 33 1026.6
20220518111054 61 343 4.0 11.0 0.00 0.00 0.00 32 1026.6
20220518110553 61 292 4.0 11.0 0.00 0.00 0.00 33 1026.6
20220518110104 61 0 1.0 9.0 0.00 0.00 0.00 35 1026.7
20220518105555 60 317 3.0 8.0 0.00 0.00 0.00 35 1026.7
20220518105100 61 10 2.0 10.0 0.00 0.00 0.00 33 1026.7
20220518104611 60 5 3.0 10.0 0.00 0.00 0.00 34 1026.7
20220518104055 61 5 4.0 8.0 0.00 0.00 0.00 33 1026.7
20220518103553 61 144 1.0 8.0 0.00 0.00 0.00 36 1026.7
20220518103058 60 95 0.0 8.0 0.00 0.00 0.00 36 1026.9
20220518102553 60 117 3.0 7.0 0.00 0.00 0.00 30 1026.7
20220518102053 59 136 1.0 12.0 0.00 0.00 0.00 34 1026.8
20220518101605 59 125 6.0 12.0 0.00 0.00 0.00 35 1026.8
20220518101049 58 355 5.0 10.0 0.00 0.00 0.00 36 1026.8
20220518100553 58 340 3.0 10.0 0.00 0.00 0.00 35 1026.8
20220518100107 58 98 5.0 10.0 0.00 0.00 0.00 37 1026.9
20220518095553 58 52 1.0 8.0 0.00 0.00 0.00 37 1026.9
20220518095054 58 0 2.0 12.0 0.00 0.00 0.00 38 1026.9
20220518094606 58 19 5.0 12.0 0.00 0.00 0.00 37 1026.9
20220518094052 57 19 4.0 11.0 0.00 0.00 0.00 38 1026.9
20220518093553 58 348 3.0 10.0 0.00 0.00 0.00 38 1026.9
20220518093107 57 0 2.0 12.0 0.00 0.00 0.00 38 1026.9
20220518092556 57 360 4.0 12.0 0.00 0.00 0.00 37 1026.9
20220518092059 57 41 4.0 12.0 0.00 0.00 0.00 33 1026.8
20220518091557 57 11 4.0 11.0 0.00 0.00 0.00 37 1026.9
20220518091050 57 49 3.0 11.0 0.00 0.00 0.00 38 1026.9
20220518090550 57 40 3.0 10.0 0.00 0.00 0.00 37 1026.8
20220518090103 56 5 3.0 10.0 0.00 0.00 0.00 35 1026.9
20220518085553 56 20 2.0 10.0 0.00 0.00 0.00 37 1026.9
20220518085054 56 45 1.0 9.0 0.00 0.00 0.00 46 1026.9
20220518084604 55 20 2.0 11.0 0.00 0.00 0.00 41 1026.9
20220518084050 55 5 6.0 11.0 0.00 0.00 0.00 40 1026.9
20220518083553 55 346 2.0 8.0 0.00 0.00 0.00 47 1026.8
20220518083055 55 101 3.0 10.0 0.00 0.00 0.00 48 1026.9
20220518082552 55 42 6.0 10.0 0.00 0.00 0.00 48 1027.0
20220518082052 55 51 5.0 9.0 0.00 0.00 0.00 47 1026.8
20220518081609 55 27 2.0 6.0 0.00 0.00 0.00 49 1026.9
20220518081052 55 360 2.0 7.0 0.00 0.00 0.00 44 1026.9
20220518080553 55 299 1.0 7.0 0.00 0.00 0.00 50 1026.9
20220518080058 54 328 1.0 7.0 0.00 0.00 0.00 49 1027.0
20220518075553 54 360 2.0 10.0 0.00 0.00 0.00 50 1026.9
20220518075051 53 0 4.0 10.0 0.00 0.00 0.00 51 1027.0
20220518074609 54 32 1.0 8.0 0.00 0.00 0.00 50 1026.8
20220518074051 53 349 1.0 9.0 0.00 0.00 0.00 52 1026.9
20220518073552 53 11 4.0 9.0 0.00 0.00 0.00 50 1026.9
20220518073105 53 55 2.0 6.0 0.00 0.00 0.00 53 1026.7
20220518072551 53 69 2.0 8.0 0.00 0.00 0.00 52 1026.8
20220518072132 53 84 2.0 8.0 0.00 0.00 0.00 52 1026.8
20220518071608 53 40 2.0 8.0 0.00 0.00 0.00 52 1026.8
20220518071054 53 352 1.0 7.0 0.00 0.00 0.00 54 1026.8
20220518070554 53 77 2.0 8.0 0.00 0.00 0.00 55 1026.7
20220518070108 52 152 3.0 8.0 0.00 0.00 0.00 56 1026.6
20220518065556 52 121 4.0 8.0 0.00 0.00 0.00 55 1026.5
20220518065054 52 115 3.0 8.0 0.00 0.00 0.00 54 1026.5
20220518064603 52 65 1.0 5.0 0.00 0.00 0.00 54 1026.4
20220518064053 52 68 1.0 11.0 0.00 0.00 0.00 55 1026.3
20220518063554 50 41 4.0 11.0 0.00 0.00 0.00 56 1026.3
20220518063102 51 107 5.0 10.0 0.00 0.00 0.00 55 1026.2
20220518062551 51 86 3.0 8.0 0.00 0.00 0.00 56 1026.2
20220518062053 50 72 3.0 8.0 0.00 0.00 0.00 58 1026.0
20220518061604 50 72 2.0 10.0 0.00 0.00 0.00 57 1026.1
20220518061053 50 144 4.0 10.0 0.00 0.00 0.00 57 1026.0
20220518060554 50 69 2.0 5.0 0.00 0.00 0.00 58 1026.0
20220518060113 50 76 2.0 5.0 0.00 0.00 0.00 58 1025.9
20220518055554 50 95 2.0 9.0 0.00 0.00 0.00 53 1025.8
20220518055054 50 23 4.0 9.0 0.00 0.00 0.00 54 1025.9
20220518054614 50 312 1.0 6.0 0.00 0.00 0.00 59 1025.7
20220518054053 49 104 1.0 6.0 0.00 0.00 0.00 60 1025.7
20220518053556 49 40 2.0 6.0 0.00 0.00 0.00 59 1025.6
20220518053104 49 64 1.0 8.0 0.00 0.00 0.00 56 1025.6
20220518052556 48 76 2.0 8.0 0.00 0.00 0.00 57 1025.6
20220518052055 48 5 2.0 8.0 0.00 0.00 0.00 53 1025.4
20220518051559 48 77 3.0 8.0 0.00 0.00 0.00 58 1025.4
20220518051054 47 81 3.0 10.0 0.00 0.00 0.00 59 1025.4
20220518050553 47 113 4.0 10.0 0.00 0.00 0.00 59 1025.3
20220518050109 47 360 4.0 9.0 0.00 0.00 0.00 60 1025.3
20220518045553 47 59 3.0 9.0 0.00 0.00 0.00 60 1025.2
20220518045053 47 34 4.0 9.0 0.00 0.00 0.00 61 1025.0
20220518044605 47 61 3.0 8.0 0.00 0.00 0.00 62 1025.0
20220518044053 46 51 3.0 8.0 0.00 0.00 0.00 63 1025.0
20220518043553 46 68 1.0 6.0 0.00 0.00 0.00 63 1024.9
20220518043106 46 28 2.0 9.0 0.00 0.00 0.00 63 1024.9
20220518042554 46 61 2.0 9.0 0.00 0.00 0.00 64 1024.7
20220518042053 45 49 4.0 9.0 0.00 0.00 0.00 64 1024.7
20220518041606 45 34 3.0 9.0 0.00 0.00 0.00 65 1024.7
20220518041054 45 39 3.0 8.0 0.00 0.00 0.00 60 1024.7
20220518040554 45 43 2.0 8.0 0.00 0.00 0.00 66 1024.7
20220518040111 45 25 3.0 6.0 0.00 0.00 0.00 66 1024.5
20220518035554 45 26 2.0 6.0 0.00 0.00 0.00 67 1024.4
20220518035051 45 27 2.0 7.0 0.00 0.00 0.00 68 1024.3
20220518034606 45 34 3.0 7.0 0.00 0.00 0.00 67 1024.2
20220518034051 45 76 2.0 5.0 0.00 0.00 0.00 68 1024.2
20220518033553 45 29 2.0 8.0 0.00 0.00 0.00 68 1024.1
20220518033108 45 73 3.0 8.0 0.00 0.00 0.00 68 1024.0
20220518032554 45 5 3.0 8.0 0.00 0.00 0.00 69 1023.9
20220518032053 45 30 2.0 5.0 0.00 0.00 0.00 69 1024.0
20220518031603 45 355 3.0 8.0 0.00 0.00 0.00 69 1024.0
20220518031054 45 40 3.0 11.0 0.00 0.00 0.00 69 1023.9
20220518030552 45 348 4.0 11.0 0.00 0.00 0.00 69 1023.7
20220518030103 45 352 4.0 11.0 0.00 0.00 0.00 69 1023.6
20220518025552 45 51 3.0 12.0 0.00 0.00 0.00 69 1023.5
20220518025053 45 304 6.0 12.0 0.00 0.00 0.00 69 1023.4
20220518024605 45 44 4.0 9.0 0.00 0.00 0.00 70 1023.4
20220518024052 45 27 3.0 9.0 0.00 0.00 0.00 70 1023.3
20220518023600 46 44 3.0 8.0 0.00 0.00 0.00 70 1023.5
20220518023058 46 57 2.0 6.0 0.00 0.00 0.00 70 1023.2
20220518022555 46 34 2.0 5.0 0.00 0.00 0.00 70 1023.1
20220518022052 46 352 3.0 6.0 0.00 0.00 0.00 70 1023.1
20220518021607 46 15 3.0 6.0 0.00 0.00 0.00 70 1023.0
20220518021052 46 355 2.0 7.0 0.00 0.00 0.00 69 1022.9
20220518020553 46 5 3.0 7.0 0.00 0.00 0.00 70 1022.9
20220518020108 47 30 2.0 5.0 0.00 0.00 0.00 69 1022.8
20220518015555 47 355 2.0 5.0 0.00 0.00 0.00 69 1022.7
20220518015053 47 28 2.0 5.0 0.00 0.00 0.00 69 1022.6
20220518014604 47 38 2.0 7.0 0.00 0.00 0.00 69 1022.6
20220518014054 47 342 3.0 7.0 0.00 0.00 0.00 70 1022.6
20220518013554 47 41 1.0 5.0 0.00 0.00 0.00 71 1022.5
20220518013110 47 31 1.0 3.0 0.00 0.00 0.00 71 1022.5
20220518012601 47 20 0.0 2.0 0.00 0.00 0.00 71 1022.5
20220518012051 47 0 0.0 3.0 0.00 0.00 0.00 71 1022.3
20220518011614 47 352 0.0 3.0 0.00 0.00 0.00 70 1022.3
20220518011055 47 9 0.0 5.0 0.00 0.00 0.00 70 1022.2
20220518010555 47 0 1.0 5.0 0.00 0.00 0.00 70 1022.1
20220518010105 47 20 1.0 4.0 0.00 0.00 0.00 70 1022.0
20220518005554 47 0 0.0 1.0 0.00 0.00 0.00 71 1022.1
20220518005052 48 0 0.0 3.0 0.00 0.00 0.00 71 1022.0
20220518004611 48 0 1.0 5.0 0.00 0.00 0.00 70 1021.9
20220518004054 48 44 1.0 5.0 0.00 0.00 0.00 70 1021.8
20220518003554 48 42 1.0 3.0 0.00 0.00 0.00 70 1021.8
20220518003106 48 0 1.0 4.0 0.00 0.00 0.00 68 1021.6
20220518002552 49 360 2.0 5.0 0.00 0.00 0.00 68 1021.6
20220518002052 49 15 2.0 5.0 0.00 0.00 0.00 68 1021.6
20220518001610 49 27 2.0 7.0 0.00 0.00 0.00 68 1021.6
20220518001055 49 0 1.0 7.0 0.00 0.00 0.00 68 1021.7
20220518000552 49 352 3.0 7.0 0.00 0.00 0.00 67 1021.6
20220518000103 49 360 0.0 2.0 0.00 0.00 0.00 68 1021.6
20220517235551 49 0 0.0 3.0 0.00 0.00 0.00 69 1021.4
20220517235053 49 0 0.0 6.0 0.00 0.00 0.00 69 1021.5
20220517234603 50 0 2.0 7.0 0.00 0.00 0.00 67 1021.4
20220517234054 50 20 3.0 7.0 0.00 0.00 0.00 67 1021.5
20220517233553 50 22 3.0 7.0 0.00 0.00 0.00 67 1021.6
20220517233105 50 352 2.0 8.0 0.00 0.00 0.00 66 1021.5
20220517232553 50 5 3.0 8.0 0.00 0.00 0.00 66 1021.5
20220517232054 50 15 3.0 8.0 0.00 0.00 0.00 66 1021.4
20220517231607 51 345 4.0 8.0 0.00 0.00 0.00 66 1021.3
20220517231056 51 17 3.0 6.0 0.00 0.00 0.00 67 1021.2
20220517230558 51 5 2.0 7.0 0.00 0.00 0.00 67 1021.2
20220517230109 51 17 3.0 7.0 0.00 0.00 0.00 67 1021.1
20220517225554 51 55 3.0 8.0 0.00 0.00 0.00 67 1021.1
20220517225101 52 355 2.0 8.0 0.00 0.00 0.00 67 1021.0
20220517224602 52 352 4.0 8.0 0.00 0.00 0.00 67 1021.0
20220517224055 52 360 3.0 7.0 0.00 0.00 0.00 67 1020.9
20220517223551 52 19 3.0 7.0 0.00 0.00 0.00 69 1020.9
20220517223058 52 22 2.0 7.0 0.00 0.00 0.00 70 1020.9
20220517222553 52 29 3.0 6.0 0.00 0.00 0.00 70 1020.8
20220517222051 52 19 2.0 5.0 0.00 0.00 0.00 71 1020.8
20220517221556 52 348 2.0 5.0 0.00 0.00 0.00 71 1020.8
20220517221059 53 26 2.0 5.0 0.00 0.00 0.00 71 1020.8
20220517220552 53 58 2.0 5.0 0.00 0.00 0.00 71 1020.8
20220517220100 53 17 2.0 5.0 0.00 0.00 0.00 71 1020.7
20220517215559 53 50 2.0 5.0 0.00 0.00 0.00 72 1020.6
20220517215053 53 355 0.0 4.0 0.00 0.00 0.00 72 1020.4
20220517214603 53 21 1.0 9.0 0.00 0.00 0.00 71 1020.3
20220517214054 53 44 2.0 9.0 0.00 0.00 0.00 71 1020.2
20220517213555 53 34 4.0 8.0 0.00 0.00 0.00 72 1020.2
20220517213103 53 42 3.0 8.0 0.00 0.00 0.00 72 1020.1
20220517212554 53 42 3.0 5.0 0.00 0.00 0.00 73 1020.0
20220517212051 53 30 2.0 5.0 0.00 0.00 0.00 74 1020.0
20220517211608 53 50 1.0 4.0 0.00 0.00 0.00 75 1019.9
20220517211051 53 36 0.0 3.0 0.00 0.00 0.00 77 1020.0
20220517210553 53 30 0.0 2.0 0.00 0.00 0.00 79 1019.8
20220517210105 53 0 0.0 2.0 0.00 0.00 0.00 80 1019.9
20220517205559 53 355 1.0 2.0 0.00 0.00 0.00 80 1019.8
20220517205052 54 0 0.0 3.0 0.00 0.00 0.00 80 1019.8
20220517204555 54 333 1.0 3.0 0.00 0.00 0.00 80 1019.7
20220517204053 54 360 2.0 3.0 0.00 0.00 0.00 81 1019.6
20220517203555 54 338 2.0 3.0 0.00 0.00 0.00 82 1019.5
20220517203138 54 355 1.0 3.0 0.00 0.00 0.00 81 1019.4
20220517202551 54 346 1.0 3.0 0.00 0.00 0.00 81 1019.4
20220517202051 55 0 0.0 1.0 0.00 0.00 0.00 80 1019.3
20220517201558 55 0 0.0 1.0 0.00 0.00 0.00 79 1019.3
20220517201056 55 0 0.0 1.0 0.00 0.00 0.00 79 1019.2
20220517200551 55 0 0.0 3.0 0.00 0.00 0.00 78 1019.2
20220517200110 56 0 0.0 3.0 0.00 0.00 0.00 77 1019.1
20220517195554 56 337 1.0 3.0 0.00 0.00 0.00 77 1019.1
20220517195051 56 0 2.0 4.0 0.00 0.00 0.00 76 1019.0
20220517194603 56 309 2.0 4.0 0.00 0.00 0.00 76 1018.9
20220517194051 56 330 2.0 4.0 0.00 0.00 0.00 75 1019.0
20220517193555 57 306 2.0 4.0 0.00 0.00 0.00 74 1018.9
20220517193106 57 334 2.0 5.0 0.00 0.00 0.00 73 1018.9
20220517192551 57 338 2.0 6.0 0.00 0.00 0.00 72 1018.7
20220517192051 57 348 2.0 6.0 0.00 0.00 0.00 72 1018.7
20220517191638 57 308 3.0 5.0 0.00 0.00 0.00 72 1018.7
20220517191050 57 326 2.0 4.0 0.00 0.00 0.00 71 1018.7
20220517190554 58 317 2.0 4.0 0.00 0.00 0.00 70 1018.6
20220517190105 58 335 1.0 3.0 0.00 0.00 0.00 69 1018.6
20220517185551 58 317 1.0 3.0 0.00 0.00 0.00 68 1018.4
20220517185051 58 313 1.0 3.0 0.00 0.00 0.00 67 1018.4
20220517184605 59 305 1.0 5.0 0.00 0.00 0.00 67 1018.4
20220517184052 59 319 1.0 5.0 0.00 0.00 0.00 66 1018.3
20220517183553 59 333 3.0 5.0 0.00 0.00 0.00 66 1018.2
20220517183100 60 328 1.0 4.0 0.00 0.00 0.00 65 1018.2
20220517182551 60 348 1.0 4.0 0.00 0.00 0.00 65 1018.0
20220517182051 60 336 2.0 6.0 0.00 0.00 0.00 66 1018.1
20220517181601 61 317 2.0 6.0 0.00 0.00 0.00 64 1017.9
20220517181052 61 316 2.0 5.0 0.00 0.00 0.00 64 1018.0
20220517180551 61 334 2.0 6.0 0.00 0.00 0.00 63 1017.9
20220517180059 61 313 2.0 8.0 0.00 0.00 0.00 64 1017.8
20220517175551 61 292 2.0 8.0 0.00 0.00 0.00 65 1017.8
20220517175051 61 302 2.0 6.0 0.00 0.00 0.00 66 1017.8
20220517174559 61 340 2.0 8.0 0.00 0.00 0.00 66 1017.7
20220517174051 61 355 2.0 8.0 0.00 0.00 0.00 66 1017.6
20220517173553 61 322 2.0 8.0 0.00 0.00 0.00 66 1017.4
20220517173106 61 284 3.0 9.0 0.00 0.00 0.00 66 1017.4
20220517172553 61 303 2.0 9.0 0.00 0.00 0.00 65 1017.5
20220517172053 61 336 4.0 8.0 0.00 0.00 0.00 65 1017.3
20220517171607 62 290 2.0 8.0 0.00 0.00 0.00 65 1017.3
20220517171053 61 319 3.0 9.0 0.00 0.00 0.00 65 1017.3
20220517170551 61 342 3.0 9.0 0.00 0.00 0.00 66 1017.3
20220517170106 61 342 2.0 10.0 0.00 0.00 0.00 66 1017.3
20220517165551 61 28 5.0 11.0 0.00 0.00 0.00 66 1017.2